Flag for Germany Weather past 2 weeks in Bad Oeynhausen, North Rhine-Westphalia, Germany

Now
72 °F

Scattered clouds.


Feels Like: 72 °F
Forecast: 65 / 81 °F
Wind: 7 mph from Northeast

Location: Bueckeburg

Current Time: Jul 28, 2014 at 11:48:54 AM

Latest Report: Jul 28, 2014 at 10:20 AM


Visibility: N/A

Pressure: 29.92 "Hg

Humidity: 78%

Dew point: 64 °F

Location of Bad OeynhausenLocation

Historic Weather in Bad Oeynhausen — Graph

°F

Bad Oeynhausen temperature yesterday

Maximum temperature yesterday: 79 °F (at 3:20 PM)
Minimum temperature yesterday: 61 °F (at 4:20 AM)
Average temperature yesterday: 71 °F

Past Weeks' High & Low Weather Summary

 TemperatureHumidityPressure
High91 °F (Jul 19, 4:20 PM)100% (Jul 21, 7:20 AM)30.18 "Hg (Jul 21, 7:20 AM)
Low57 °F (Jul 15, 2:20 AM)28% (Jul 19, 4:20 PM)29.68 "Hg (Jul 13, 6:20 PM)
Average70 °F71%29.98 "Hg
* Reported Jul 13 10:20 AM — Jul 28 10:20 AM, Bad Oeynhausen, Weather by CustomWeather, © 2014

Note: Actual official high and low records may vary slightly from our data, if they occured in-between our weather recording intervals... More about our weather records

Advertising

Bad Oeynhausen weather history for previous 24 hours

 ConditionsComfort  
Time TempWeatherWind HumidityBarometerVisibility
10:20 AM
Jul 28
72 °FScattered clouds.7 mph78%29.92 "HgN/A
9:54 AM72 °FScattered clouds.7 mph78%29.92 "Hg5 mi
9:20 AM70 °FFog.6 mph78%29.95 "Hg3 mi
8:46 AM68 °FFog.6 mph88%29.95 "Hg2 mi
8:20 AM68 °FFog.5 mph88%29.95 "Hg2 mi
7:45 AM64 °FFog.No wind94%29.95 "Hg2 mi
7:20 AM64 °FFog.2 mph94%29.95 "Hg2 mi
6:20 AM59 °FFog.No wind100%29.95 "Hg1 mi
5:20 AM61 °FFog.1 mph94%29.95 "Hg3 mi
4:20 AM61 °FFog.1 mph94%29.95 "Hg4 mi
3:20 AM61 °FPassing clouds.2 mph94%29.95 "Hg5 mi
2:20 AM63 °FPassing clouds.2 mph94%29.95 "Hg5 mi
1:20 AM63 °FPassing clouds.2 mph94%29.98 "HgN/A
12:20 AM64 °FPassing clouds.3 mph88%29.98 "HgN/A
11:20 PM
Jul 27
66 °FPassing clouds.3 mph83%29.98 "HgN/A
10:20 PM68 °FScattered clouds.1 mph83%29.98 "HgN/A
9:20 PM72 °FPartly sunny.No wind73%29.98 "HgN/A
8:20 PM73 °FScattered clouds.5 mph65%29.98 "HgN/A
7:20 PM77 °FPassing clouds.10 mph57%29.95 "HgN/A
6:20 PM79 °FWarm.8 mph54%29.95 "HgN/A
5:20 PM79 °FWarm.8 mph54%29.95 "HgN/A
4:20 PM79 °FWarm.13 mph51%29.95 "HgN/A
3:20 PM79 °FWarm.13 mph54%29.95 "HgN/A
2:20 PM77 °FWarm.10 mph57%29.95 "HgN/A
1:20 PM77 °FWarm.7 mph57%29.98 "HgN/A
12:20 PM77 °FWarm.9 mph61%29.98 "Hg5 mi
11:20 AM75 °FMild.9 mph65%29.98 "Hg5 mi
Weather by CustomWeather, © 2014

See weather overviewHow to use our weather pages